| time (UTC) | temp F | wind direction | speed knots | gust knots | rain 1hr in | rain 24hr in | rain mn in | humidity % | barometer mb |
| 20260503194529 | 60 | 268 | 7.0 | 9.6 | 0.00 | 0.00 | 0.00 | 74 | 1015.1 |
| 20260503193033 | 60 | 272 | 4.3 | 11.3 | 0.00 | 0.00 | 0.00 | 76 | 1015.2 |
| 20260503191517 | 61 | 273 | 6.1 | 9.6 | 0.00 | 0.00 | 0.00 | 72 | 1015.3 |
| 20260503190023 | 61 | 250 | 1.7 | 10.4 | 0.00 | 0.00 | 0.00 | 75 | 1015.2 |
| 20260503184526 | 61 | 278 | 4.3 | 8.7 | 0.00 | 0.00 | 0.00 | 74 | 1015.5 |
| 20260503183035 | 61 | 270 | 5.2 | 9.6 | 0.00 | 0.00 | 0.00 | 74 | 1015.6 |
| 20260503181554 | 61 | 257 | 4.3 | 7.8 | 0.00 | 0.00 | 0.00 | 76 | 1015.7 |
| 20260503180017 | 60 | 221 | 3.5 | 7.8 | 0.00 | 0.00 | 0.00 | 75 | 1015.8 |
| 20260503174523 | 61 | 229 | 1.7 | 7.0 | 0.00 | 0.00 | 0.00 | 75 | 1015.9 |
| 20260503173041 | 61 | 270 | 3.5 | 7.0 | 0.00 | 0.00 | 0.00 | 75 | 1016.1 |
| 20260503171528 | 61 | 311 | 2.6 | 7.0 | 0.00 | 0.00 | 0.00 | 76 | 1016.1 |
| 20260503081519 | 52 | 290 | 0.0 | 0.0 | 0.00 | 0.00 | 0.00 | 90 | 1015.9 |
| 20260503071503 | 51 | 15 | 0.0 | 0.0 | 0.00 | 0.00 | 0.00 | 88 | 1015.8 |
| 20260503054503 | 51 | 265 | 0.9 | 1.7 | 0.00 | 0.00 | 0.00 | 89 | 1015.5 |
| 20260503053003 | 51 | 265 | 0.0 | 1.7 | 0.00 | 0.00 | 0.00 | 89 | 1015.6 |
| 20260503051506 | 52 | 265 | 0.0 | 1.7 | 0.00 | 0.00 | 0.00 | 88 | 1015.6 |
| 20260503050003 | 52 | 234 | 0.0 | 1.7 | 0.00 | 0.00 | 0.00 | 87 | 1015.6 |
| 20260503044502 | 53 | 234 | 0.0 | 1.7 | 0.00 | 0.00 | 0.00 | 86 | 1015.6 |
| 20260503043004 | 53 | 234 | 0.0 | 1.7 | 0.00 | 0.00 | 0.00 | 86 | 1015.5 |
| 20260503041505 | 54 | 234 | 0.0 | 1.7 | 0.00 | 0.00 | 0.00 | 84 | 1015.4 |
| 20260503040006 | 55 | 234 | 0.0 | 1.7 | 0.00 | 0.00 | 0.00 | 83 | 1015.3 |
| 20260503034503 | 56 | 234 | 0.0 | 1.7 | 0.00 | 0.00 | 0.00 | 81 | 1015.1 |
| 20260503033009 | 57 | 267 | 0.0 | 1.7 | 0.00 | 0.00 | 0.00 | 78 | 1014.9 |
| 20260503031504 | 59 | 267 | 0.0 | 0.0 | 0.00 | 0.00 | 0.00 | 74 | 1014.9 |
| 20260503030006 | 61 | 267 | 0.0 | 0.0 | 0.00 | 0.00 | 0.00 | 71 | 1014.9 |
| 20260503024505 | 62 | 267 | 0.0 | 0.0 | 0.00 | 0.00 | 0.00 | 70 | 1014.7 |
| 20260503023005 | 61 | 268 | 0.0 | 0.9 | 0.00 | 0.00 | 0.00 | 69 | 1014.7 |
| 20260503021515 | 62 | 289 | 0.0 | 1.7 | 0.00 | 0.00 | 0.00 | 68 | 1014.8 |
| 20260503020006 | 62 | 278 | 0.0 | 1.7 | 0.00 | 0.00 | 0.00 | 68 | 1014.9 |
| 20260503014507 | 63 | 266 | 0.9 | 2.6 | 0.00 | 0.00 | 0.00 | 66 | 1015.0 |
| 20260503013007 | 64 | 258 | 1.7 | 2.6 | 0.00 | 0.00 | 0.00 | 66 | 1015.1 |
| 20260503011510 | 64 | 269 | 1.7 | 3.5 | 0.00 | 0.00 | 0.00 | 66 | 1015.3 |
| 20260503010007 | 65 | 263 | 1.7 | 6.1 | 0.00 | 0.00 | 0.00 | 66 | 1015.3 |
| 20260503004507 | 64 | 22 | 0.9 | 3.5 | 0.00 | 0.00 | 0.00 | 67 | 1015.4 |
| 20260503003010 | 63 | 338 | 3.5 | 7.0 | 0.00 | 0.00 | 0.00 | 67 | 1015.4 |
| 20260503001510 | 63 | 219 | 4.3 | 7.8 | 0.00 | 0.00 | 0.00 | 67 | 1015.6 |
| 20260503000016 | 63 | 228 | 1.7 | 5.2 | 0.00 | 0.00 | 0.00 | 69 | 1015.6 |
| 20260502234511 | 62 | 294 | 1.7 | 7.0 | 0.00 | 0.00 | 0.00 | 70 | 1015.8 |
| 20260502233010 | 62 | 270 | 1.7 | 7.8 | 0.00 | 0.00 | 0.00 | 72 | 1016.0 |
| 20260502231510 | 62 | 291 | 2.6 | 9.6 | 0.00 | 0.00 | 0.00 | 73 | 1016.1 |
| 20260502230012 | 62 | 294 | 3.5 | 9.6 | 0.00 | 0.00 | 0.00 | 74 | 1016.2 |
| 20260502224509 | 61 | 260 | 3.5 | 10.4 | 0.00 | 0.00 | 0.00 | 75 | 1016.5 |
| 20260502223032 | 61 | 298 | 4.3 | 10.4 | 0.00 | 0.00 | 0.00 | 75 | 1016.6 |
| 20260502221511 | 62 | 284 | 2.6 | 10.4 | 0.00 | 0.00 | 0.00 | 1016.8 | |
| 20260502220014 | 62 | 253 | 1.7 | 8.7 | 0.00 | 0.00 | 0.00 | 76 | 1017.0 |
| 20260502214503 | 61 | 272 | 4.3 | 10.4 | 0.00 | 0.00 | 0.00 | 75 | 1017.2 |
| 20260502213011 | 61 | 280 | 2.6 | 10.4 | 0.00 | 0.00 | 0.00 | 77 | 1017.4 |
| 20260502211513 | 60 | 49 | 2.6 | 10.4 | 0.00 | 0.00 | 0.00 | 78 | 1017.6 |
| 20260502210013 | 59 | 291 | 5.2 | 12.2 | 0.00 | 0.00 | 0.00 | 79 | 1017.7 |
| 20260502204521 | 59 | 275 | 5.2 | 13.0 | 0.00 | 0.00 | 0.00 | 77 | 1017.8 |
| 20260502203010 | 60 | 360 | 3.5 | 9.6 | 0.00 | 0.00 | 0.00 | 78 | 1017.9 |
| 20260502201514 | 60 | 282 | 3.5 | 10.4 | 0.00 | 0.00 | 0.00 | 78 | 1018.0 |
| 20260502200016 | 60 | 251 | 4.3 | 11.3 | 0.00 | 0.00 | 0.00 | 77 | 1018.1 |